Time,TemperatureF,DewpointF,PressureIn,WindDirection,WindDirectionDegrees,WindSpeedMPH,WindSpeedGustMPH,Humidity,HourlyPrecipIn,Conditions,Clouds,dailyrainin,SoftwareType,DateUTC
2013-09-22 00:02:00,57.9,46.2,29.20,NNE,32,0.0,0.0,65,0.00,,---,0.00,VWS V12.08,2013-09-22 05:02:00,
2013-09-22 00:08:00,57.7,45.6,29.20,NNE,32,0.0,0.0,64,0.00,,---,0.00,VWS V12.08,2013-09-22 05:08:00,
2013-09-22 00:13:00,57.4,45.8,29.20,NE,34,0.0,0.0,65,0.00,,---,0.00,VWS V12.08,2013-09-22 05:13:00,
2013-09-22 00:18:00,56.8,45.6,29.20,NE,44,0.0,0.0,66,0.00,,---,0.00,VWS V12.08,2013-09-22 05:18:00,
2013-09-22 00:24:00,56.2,45.4,29.20,ENE,65,0.0,0.0,67,0.00,,---,0.00,VWS V12.08,2013-09-22 05:24:00,
2013-09-22 00:29:00,55.7,45.3,29.20,ENE,68,0.0,0.0,68,0.00,,---,0.00,VWS V12.08,2013-09-22 05:29:00,
2013-09-22 00:34:00,55.3,45.3,29.20,ENE,68,0.0,0.0,69,0.00,,---,0.00,VWS V12.08,2013-09-22 05:34:00,
2013-09-22 00:39:00,54.8,45.2,29.20,ENE,68,0.0,0.0,70,0.00,,---,0.00,VWS V12.08,2013-09-22 05:39:00,
2013-09-22 00:45:00,54.3,45.5,29.20,ENE,68,0.0,0.0,72,0.00,,---,0.00,VWS V12.08,2013-09-22 05:45:00,
2013-09-22 00:50:00,54.0,45.2,29.20,ENE,68,0.0,0.0,72,0.00,,---,0.00,VWS V12.08,2013-09-22 05:50:00,
2013-09-22 00:55:00,53.7,45.3,29.20,ENE,67,0.0,0.0,73,0.00,,---,0.00,VWS V12.08,2013-09-22 05:55:00,
2013-09-22 01:00:00,53.5,45.4,29.20,ENE,67,0.0,0.0,74,0.00,,---,0.00,VWS V12.08,2013-09-22 06:00:00,
2013-09-22 01:05:00,53.3,45.6,29.20,ENE,67,0.0,0.0,75,0.00,,---,0.00,VWS V12.08,2013-09-22 06:05:00,
2013-09-22 01:10:00,53.2,45.8,29.20,ENE,67,0.0,0.0,76,0.00,,---,0.00,VWS V12.08,2013-09-22 06:10:00,
2013-09-22 01:15:00,53.2,45.8,29.20,ENE,68,0.0,0.0,76,0.00,,---,0.00,VWS V12.08,2013-09-22 06:15:00,
2013-09-22 01:20:00,53.2,45.8,29.21,ENE,68,0.0,0.0,76,0.00,,---,0.00,VWS V12.08,2013-09-22 06:20:00,
2013-09-22 01:25:00,53.4,46.4,29.20,ENE,67,0.0,0.0,77,0.00,,---,0.00,VWS V12.08,2013-09-22 06:25:00,
2013-09-22 01:30:00,53.6,46.2,29.21,ENE,67,0.0,0.0,76,0.00,,---,0.00,VWS V12.08,2013-09-22 06:30:00,
2013-09-22 01:35:00,53.7,46.3,29.21,ENE,68,0.0,0.0,76,0.00,,---,0.00,VWS V12.08,2013-09-22 06:35:00,
2013-09-22 01:40:00,53.7,46.3,29.21,ENE,68,0.0,0.0,76,0.00,,---,0.00,VWS V12.08,2013-09-22 06:40:00,
2013-09-22 01:45:00,53.9,46.5,29.21,ENE,70,0.0,0.0,76,0.00,,---,0.00,VWS V12.08,2013-09-22 06:45:00,
2013-09-22 01:50:00,54.0,46.3,29.21,ENE,68,0.0,0.0,75,0.00,,---,0.00,VWS V12.08,2013-09-22 06:50:00,
2013-09-22 01:56:00,53.9,45.8,29.21,ENE,68,0.0,0.0,74,0.00,,---,0.00,VWS V12.08,2013-09-22 06:56:00,
2013-09-22 02:01:00,53.7,46.0,29.21,ENE,68,0.0,0.0,75,0.00,,---,0.00,VWS V12.08,2013-09-22 07:01:00,
2013-09-22 02:06:00,53.5,45.8,29.22,ENE,70,0.0,0.0,75,0.00,,---,0.00,VWS V12.08,2013-09-22 07:06:00,
2013-09-22 02:11:00,53.4,45.7,29.22,ENE,68,0.0,0.0,75,0.00,,---,0.00,VWS V12.08,2013-09-22 07:11:00,
2013-09-22 02:16:00,52.9,45.2,29.21,ENE,71,0.0,0.0,75,0.00,,---,0.00,VWS V12.08,2013-09-22 07:16:00,
2013-09-22 02:21:00,52.4,45.1,29.21,ENE,68,0.0,0.0,76,0.00,,---,0.00,VWS V12.08,2013-09-22 07:21:00,
2013-09-22 02:26:00,52.1,44.8,29.21,ENE,70,0.0,0.0,76,0.00,,---,0.00,VWS V12.08,2013-09-22 07:26:00,
2013-09-22 02:31:00,51.8,44.8,29.21,ENE,67,0.0,0.0,77,0.00,,---,0.00,VWS V12.08,2013-09-22 07:31:00,
2013-09-22 02:36:00,51.6,45.0,29.21,ENE,69,0.0,0.0,78,0.00,,---,0.00,VWS V12.08,2013-09-22 07:36:00,
2013-09-22 02:41:00,51.5,44.9,29.21,ENE,68,0.0,0.0,78,0.00,,---,0.00,VWS V12.08,2013-09-22 07:41:00,
2013-09-22 02:46:00,51.5,44.9,29.22,ENE,69,0.0,0.0,78,0.00,,---,0.00,VWS V12.08,2013-09-22 07:46:00,
2013-09-22 02:51:00,51.4,45.1,29.22,ENE,76,0.0,0.0,79,0.00,,---,0.00,VWS V12.08,2013-09-22 07:51:00,
2013-09-22 02:56:00,51.5,45.2,29.22,ENE,69,0.0,0.0,79,0.00,,---,0.00,VWS V12.08,2013-09-22 07:56:00,
2013-09-22 03:01:00,51.5,45.2,29.21,East,79,0.0,0.0,79,0.00,,---,0.00,VWS V12.08,2013-09-22 08:01:00,
2013-09-22 03:06:00,51.7,45.4,29.21,East,92,0.0,0.0,79,0.00,,---,0.00,VWS V12.08,2013-09-22 08:06:00,
2013-09-22 03:11:00,52.0,45.4,29.21,East,91,0.0,0.0,78,0.00,,---,0.00,VWS V12.08,2013-09-22 08:11:00,
2013-09-22 03:16:00,52.2,45.6,29.21,East,94,0.0,0.0,78,0.00,,---,0.00,VWS V12.08,2013-09-22 08:16:00,
2013-09-22 03:21:00,52.4,45.4,29.21,East,93,0.0,0.0,77,0.00,,---,0.00,VWS V12.08,2013-09-22 08:21:00,
2013-09-22 03:26:00,52.4,45.4,29.21,East,93,0.0,0.0,77,0.00,,---,0.00,VWS V12.08,2013-09-22 08:26:00,
2013-09-22 03:31:00,52.5,45.5,29.21,East,92,0.0,0.0,77,0.00,,---,0.00,VWS V12.08,2013-09-22 08:31:00,
2013-09-22 03:36:00,52.4,45.1,29.22,East,93,0.0,0.0,76,0.00,,---,0.00,VWS V12.08,2013-09-22 08:36:00,
2013-09-22 03:41:00,52.3,45.3,29.21,East,94,0.0,0.0,77,0.00,,---,0.00,VWS V12.08,2013-09-22 08:41:00,
2013-09-22 03:46:00,52.3,45.0,29.21,East,93,0.0,0.0,76,0.00,,---,0.00,VWS V12.08,2013-09-22 08:46:00,
2013-09-22 03:51:00,52.5,45.2,29.21,East,93,0.0,0.0,76,0.00,,---,0.00,VWS V12.08,2013-09-22 08:51:00,
2013-09-22 03:56:00,52.5,45.2,29.22,East,93,0.0,0.0,76,0.00,,---,0.00,VWS V12.08,2013-09-22 08:56:00,
2013-09-22 04:01:00,52.6,44.9,29.22,East,93,0.0,0.0,75,0.00,,---,0.00,VWS V12.08,2013-09-22 09:01:00,
2013-09-22 04:07:00,52.5,44.8,29.21,East,93,0.0,0.0,75,0.00,,---,0.00,VWS V12.08,2013-09-22 09:07:00,
2013-09-22 04:12:00,52.4,45.1,29.21,East,95,0.0,0.0,76,0.00,,---,0.00,VWS V12.08,2013-09-22 09:12:00,
2013-09-22 04:17:00,52.4,44.7,29.22,East,94,0.0,0.0,75,0.00,,---,0.00,VWS V12.08,2013-09-22 09:17:00,
2013-09-22 04:22:00,52.3,44.6,29.22,East,96,0.0,0.0,75,0.00,,---,0.00,VWS V12.08,2013-09-22 09:22:00,
2013-09-22 04:27:00,52.4,44.7,29.22,East,95,0.0,0.0,75,0.00,,---,0.00,VWS V12.08,2013-09-22 09:27:00,
2013-09-22 04:32:00,52.3,44.6,29.22,East,94,0.0,0.0,75,0.00,,---,0.00,VWS V12.08,2013-09-22 09:32:00,
2013-09-22 04:37:00,52.2,44.5,29.22,East,96,0.0,0.0,75,0.00,,---,0.00,VWS V12.08,2013-09-22 09:37:00,
2013-09-22 04:42:00,52.3,44.6,29.23,East,101,0.0,0.0,75,0.00,,---,0.00,VWS V12.08,2013-09-22 09:42:00,
2013-09-22 04:47:00,52.4,44.7,29.22,East,98,0.0,0.0,75,0.00,,---,0.00,VWS V12.08,2013-09-22 09:47:00,
2013-09-22 04:52:00,52.5,44.5,29.22,East,97,0.0,0.0,74,0.00,,---,0.00,VWS V12.08,2013-09-22 09:52:00,
2013-09-22 04:57:00,52.7,44.7,29.22,ESE,105,0.0,0.0,74,0.00,,---,0.00,VWS V12.08,2013-09-22 09:57:00,
2013-09-22 05:02:00,52.9,44.8,29.22,ESE,105,0.0,0.0,74,0.00,,---,0.00,VWS V12.08,2013-09-22 10:02:00,
2013-09-22 05:07:00,53.0,45.0,29.22,ESE,105,0.0,0.0,74,0.00,,---,0.00,VWS V12.08,2013-09-22 10:07:00,
2013-09-22 05:12:00,53.0,44.6,29.22,ESE,104,0.0,0.0,73,0.00,,---,0.00,VWS V12.08,2013-09-22 10:12:00,
2013-09-22 05:17:00,52.8,44.4,29.22,ESE,104,0.0,0.0,73,0.00,,---,0.00,VWS V12.08,2013-09-22 10:17:00,
2013-09-22 05:22:00,52.6,44.2,29.22,ESE,104,0.0,0.0,73,0.00,,---,0.00,VWS V12.08,2013-09-22 10:22:00,
2013-09-22 05:27:00,52.5,44.5,29.23,ESE,104,0.0,0.0,74,0.00,,---,0.00,VWS V12.08,2013-09-22 10:27:00,
2013-09-22 05:32:00,52.3,44.3,29.23,ESE,104,0.0,0.0,74,0.00,,---,0.00,VWS V12.08,2013-09-22 10:32:00,
2013-09-22 05:37:00,52.2,44.5,29.22,ESE,104,0.0,0.0,75,0.00,,---,0.00,VWS V12.08,2013-09-22 10:37:00,
2013-09-22 05:42:00,52.1,44.1,29.22,ESE,104,0.0,0.0,74,0.00,,---,0.00,VWS V12.08,2013-09-22 10:42:00,
2013-09-22 05:48:00,52.1,44.4,29.22,ESE,104,0.0,0.0,75,0.00,,---,0.00,VWS V12.08,2013-09-22 10:48:00,
2013-09-22 05:53:00,52.1,44.4,29.23,ESE,104,0.0,0.0,75,0.00,,---,0.00,VWS V12.08,2013-09-22 10:53:00,
2013-09-22 05:59:00,51.9,44.2,29.23,ESE,104,0.0,0.0,75,0.00,,---,0.00,VWS V12.08,2013-09-22 10:59:00,
2013-09-22 06:04:00,51.9,44.2,29.24,ESE,104,0.0,0.0,75,0.00,,---,0.00,VWS V12.08,2013-09-22 11:04:00,
2013-09-22 06:09:00,51.9,44.6,29.24,ESE,104,0.0,0.0,76,0.00,,---,0.00,VWS V12.08,2013-09-22 11:09:00,
2013-09-22 06:14:00,51.9,44.2,29.23,ESE,104,0.0,0.0,75,0.00,,---,0.00,VWS V12.08,2013-09-22 11:14:00,
2013-09-22 06:20:00,51.9,44.2,29.23,ESE,104,0.0,0.0,75,0.00,,---,0.00,VWS V12.08,2013-09-22 11:20:00,
2013-09-22 06:25:00,51.8,44.1,29.23,ESE,104,0.0,0.0,75,0.00,,---,0.00,VWS V12.08,2013-09-22 11:25:00,
2013-09-22 06:32:00,51.7,44.0,29.24,ESE,104,0.0,0.0,75,0.00,,---,0.00,VWS V12.08,2013-09-22 11:32:00,
2013-09-22 06:37:00,51.6,44.0,29.24,ESE,104,0.0,0.0,75,0.00,,---,0.00,VWS V12.08,2013-09-22 11:37:00,
2013-09-22 06:42:00,51.5,44.2,29.23,ESE,104,0.0,0.0,76,0.00,,---,0.00,VWS V12.08,2013-09-22 11:42:00,
2013-09-22 06:48:00,51.1,43.8,29.24,ESE,104,0.0,0.0,76,0.00,,---,0.00,VWS V12.08,2013-09-22 11:48:00,
2013-09-22 06:53:00,50.9,43.6,29.24,ESE,105,0.0,0.0,76,0.00,,---,0.00,VWS V12.08,2013-09-22 11:53:00,
2013-09-22 06:58:00,50.6,43.7,29.25,ESE,105,0.0,0.0,77,0.00,,---,0.00,VWS V12.08,2013-09-22 11:58:00,
2013-09-22 07:04:00,50.5,43.6,29.25,ESE,104,0.0,0.0,77,0.00,,---,0.00,VWS V12.08,2013-09-22 12:04:00,
2013-09-22 07:09:00,50.4,43.5,29.24,ESE,104,0.0,0.0,77,0.00,,---,0.00,VWS V12.08,2013-09-22 12:09:00,
2013-09-22 07:15:00,50.5,43.9,29.24,ESE,104,0.0,0.0,78,0.00,,---,0.00,VWS V12.08,2013-09-22 12:15:00,
2013-09-22 07:20:00,50.7,44.1,29.24,ESE,104,0.0,0.0,78,0.00,,---,0.00,VWS V12.08,2013-09-22 12:20:00,
2013-09-22 07:26:00,50.9,44.0,29.25,ESE,105,0.0,0.0,77,0.00,,---,0.00,VWS V12.08,2013-09-22 12:26:00,
2013-09-22 07:32:00,51.3,44.3,29.25,ESE,105,0.0,0.0,77,0.00,,---,0.00,VWS V12.08,2013-09-22 12:32:00,
2013-09-22 07:37:00,51.8,44.5,29.25,ESE,106,0.0,0.0,76,0.00,,---,0.00,VWS V12.08,2013-09-22 12:37:00,
2013-09-22 07:42:00,52.4,45.1,29.25,ESE,108,0.0,0.0,76,0.00,,---,0.00,VWS V12.08,2013-09-22 12:42:00,
2013-09-22 07:47:00,52.9,45.2,29.25,ESE,109,0.0,0.0,75,0.00,,---,0.00,VWS V12.08,2013-09-22 12:47:00,
2013-09-22 07:53:00,53.5,45.1,29.25,ESE,120,0.0,0.0,73,0.00,,---,0.00,VWS V12.08,2013-09-22 12:53:00,
2013-09-22 07:58:00,54.0,45.2,29.26,ESE,117,0.0,0.0,72,0.00,,---,0.00,VWS V12.08,2013-09-22 12:58:00,
2013-09-22 08:04:00,54.6,45.8,29.25,ESE,117,0.0,0.0,72,0.00,,---,0.00,VWS V12.08,2013-09-22 13:04:00,
2013-09-22 08:09:00,55.1,45.5,29.25,SE,125,0.0,0.0,70,0.00,,---,0.00,VWS V12.08,2013-09-22 13:09:00,
2013-09-22 08:14:00,55.5,45.5,29.25,ESE,116,0.0,0.0,69,0.00,,---,0.00,VWS V12.08,2013-09-22 13:14:00,
2013-09-22 08:19:00,55.9,45.9,29.25,SE,137,0.0,0.0,69,0.00,,---,0.00,VWS V12.08,2013-09-22 13:19:00,
2013-09-22 08:24:00,56.4,46.0,29.25,SE,146,0.0,0.0,68,0.00,,---,0.00,VWS V12.08,2013-09-22 13:24:00,
2013-09-22 08:29:00,56.8,46.0,29.25,ESE,117,0.0,0.0,67,0.00,,---,0.00,VWS V12.08,2013-09-22 13:29:00,
2013-09-22 08:34:00,57.3,46.5,29.26,SSE,154,0.0,0.0,67,0.00,,---,0.00,VWS V12.08,2013-09-22 13:34:00,
2013-09-22 08:40:00,57.7,46.4,29.25,SE,127,0.0,0.0,66,0.00,,---,0.00,VWS V12.08,2013-09-22 13:40:00,
2013-09-22 08:45:00,57.9,46.6,29.25,ESE,113,0.0,0.0,66,0.00,,---,0.00,VWS V12.08,2013-09-22 13:45:00,
2013-09-22 08:50:00,58.2,46.9,29.25,SSE,151,0.0,0.0,66,0.00,,---,0.00,VWS V12.08,2013-09-22 13:50:00,
2013-09-22 08:55:00,58.4,47.1,29.27,East,97,0.0,0.0,66,0.00,,---,0.00,VWS V12.08,2013-09-22 13:55:00,
2013-09-22 09:00:00,58.2,46.9,29.27,SSE,147,0.0,0.0,66,0.00,,---,0.00,VWS V12.08,2013-09-22 14:00:00,
2013-09-22 09:05:00,58.2,46.9,29.27,SE,141,0.0,0.0,66,0.00,,---,0.00,VWS V12.08,2013-09-22 14:05:00,
2013-09-22 09:10:00,58.4,47.1,29.27,South,170,0.0,0.0,66,0.00,,---,0.00,VWS V12.08,2013-09-22 14:10:00,
2013-09-22 09:15:00,58.9,48.0,29.26,SW,225,0.0,0.0,67,0.00,,---,0.00,VWS V12.08,2013-09-22 14:15:00,
2013-09-22 09:20:00,59.6,48.2,29.26,SSE,157,0.0,0.0,66,0.00,,---,0.00,VWS V12.08,2013-09-22 14:20:00,
2013-09-22 09:25:00,60.0,48.2,29.26,SE,136,0.0,0.0,65,0.00,,---,0.00,VWS V12.08,2013-09-22 14:25:00,
2013-09-22 09:30:00,60.2,48.4,29.26,SSE,158,0.0,0.0,65,0.00,,---,0.00,VWS V12.08,2013-09-22 14:30:00,
2013-09-22 09:36:00,61.0,49.2,29.26,South,188,0.0,0.0,65,0.00,,---,0.00,VWS V12.08,2013-09-22 14:36:00,
2013-09-22 09:41:00,61.1,49.3,29.26,SSE,166,0.0,0.0,65,0.00,,---,0.00,VWS V12.08,2013-09-22 14:41:00,
2013-09-22 09:46:00,61.3,49.9,29.26,WSW,257,0.0,0.0,66,0.00,,---,0.00,VWS V12.08,2013-09-22 14:46:00,
2013-09-22 09:51:00,61.9,50.0,29.26,South,186,0.0,0.0,65,0.00,,---,0.00,VWS V12.08,2013-09-22 14:51:00,
2013-09-22 09:57:00,62.6,50.7,29.26,SSE,167,0.0,0.0,65,0.00,,---,0.00,VWS V12.08,2013-09-22 14:57:00,
2013-09-22 10:02:00,63.3,50.1,29.26,SSW,210,0.0,0.0,62,0.00,,---,0.00,VWS V12.08,2013-09-22 15:02:00,
2013-09-22 10:07:00,63.6,49.5,29.26,SSE,160,0.0,1.0,60,0.00,,---,0.00,VWS V12.08,2013-09-22 15:07:00,
2013-09-22 10:12:00,64.0,49.8,29.26,SSE,159,0.0,1.0,60,0.00,,---,0.00,VWS V12.08,2013-09-22 15:12:00,
2013-09-22 10:17:00,64.4,48.8,29.26,SSW,208,0.0,1.0,57,0.00,,---,0.00,VWS V12.08,2013-09-22 15:17:00,
2013-09-22 10:22:00,64.8,49.2,29.26,SW,218,0.0,1.0,57,0.00,,---,0.00,VWS V12.08,2013-09-22 15:22:00,
2013-09-22 10:28:00,65.5,49.4,29.26,SSE,165,0.0,1.0,56,0.00,,---,0.00,VWS V12.08,2013-09-22 15:28:00,
2013-09-22 10:33:00,65.7,49.1,29.26,SSW,203,0.0,0.0,55,0.00,,---,0.00,VWS V12.08,2013-09-22 15:33:00,
2013-09-22 10:39:00,66.2,49.6,29.26,SE,125,0.0,1.0,55,0.00,,---,0.00,VWS V12.08,2013-09-22 15:39:00,
2013-09-22 10:44:00,66.4,49.3,29.26,SSE,166,0.0,1.0,54,0.00,,---,0.00,VWS V12.08,2013-09-22 15:44:00,
2013-09-22 10:49:00,66.7,49.5,29.26,SSW,196,0.0,1.0,54,0.00,,---,0.00,VWS V12.08,2013-09-22 15:49:00,
2013-09-22 10:55:00,67.1,48.9,29.26,SW,227,0.0,1.0,52,0.00,,---,0.00,VWS V12.08,2013-09-22 15:55:00,
2013-09-22 11:01:00,67.4,48.7,29.25,South,186,0.0,0.0,51,0.00,,---,0.00,VWS V12.08,2013-09-22 16:01:00,
2013-09-22 11:06:00,67.4,48.7,29.26,West,268,0.0,0.0,51,0.00,,---,0.00,VWS V12.08,2013-09-22 16:06:00,
2013-09-22 11:11:00,67.7,48.4,29.26,ESE,112,0.0,1.0,50,0.00,,---,0.00,VWS V12.08,2013-09-22 16:11:00,
2013-09-22 11:16:00,68.2,49.4,29.26,South,183,0.0,1.0,51,0.00,,---,0.00,VWS V12.08,2013-09-22 16:16:00,
2013-09-22 11:21:00,68.5,49.2,29.25,SSW,203,0.0,1.0,50,0.00,,---,0.00,VWS V12.08,2013-09-22 16:21:00,
2013-09-22 11:26:00,68.4,50.1,29.25,SE,140,0.0,1.0,52,0.00,,---,0.00,VWS V12.08,2013-09-22 16:26:00,
2013-09-22 11:31:00,68.5,49.7,29.25,SW,227,0.0,1.0,51,0.00,,---,0.00,VWS V12.08,2013-09-22 16:31:00,
2013-09-22 11:36:00,68.8,49.4,29.25,South,178,0.0,1.0,50,0.00,,---,0.00,VWS V12.08,2013-09-22 16:36:00,
2013-09-22 11:41:00,69.1,49.7,29.25,East,89,0.0,1.0,50,0.00,,---,0.00,VWS V12.08,2013-09-22 16:41:00,
2013-09-22 11:46:00,69.4,48.9,29.25,NW,305,0.0,1.0,48,0.00,,---,0.00,VWS V12.08,2013-09-22 16:46:00,
2013-09-22 11:52:00,69.7,49.7,29.25,SE,132,0.0,1.0,49,0.00,,---,0.00,VWS V12.08,2013-09-22 16:52:00,
2013-09-22 11:57:00,69.6,47.9,29.25,ESE,110,0.0,1.0,46,0.00,,---,0.00,VWS V12.08,2013-09-22 16:57:00,
2013-09-22 12:02:00,69.8,49.2,29.25,SSW,198,0.0,0.0,48,0.00,,---,0.00,VWS V12.08,2013-09-22 17:02:00,
2013-09-22 12:07:00,70.0,48.9,29.24,East,80,0.0,0.0,47,0.00,,---,0.00,VWS V12.08,2013-09-22 17:07:00,
2013-09-22 12:12:00,70.3,49.1,29.24,SSE,160,0.0,0.0,47,0.00,,---,0.00,VWS V12.08,2013-09-22 17:12:00,
2013-09-22 12:17:00,70.6,49.4,29.25,SW,226,0.0,0.0,47,0.00,,---,0.00,VWS V12.08,2013-09-22 17:17:00,
2013-09-22 12:22:00,70.8,48.4,29.25,SW,220,0.0,1.0,45,0.00,,---,0.00,VWS V12.08,2013-09-22 17:22:00,
2013-09-22 12:27:00,71.1,49.3,29.24,SW,236,0.0,1.0,46,0.00,,---,0.00,VWS V12.08,2013-09-22 17:27:00,
2013-09-22 12:32:00,71.7,49.2,29.24,SW,225,0.0,1.0,45,0.00,,---,0.00,VWS V12.08,2013-09-22 17:32:00,
2013-09-22 12:37:00,71.5,49.1,29.24,SSW,210,0.0,1.0,45,0.00,,---,0.00,VWS V12.08,2013-09-22 17:37:00,
2013-09-22 12:42:00,71.4,49.0,29.24,West,265,0.0,1.0,45,0.00,,---,0.00,VWS V12.08,2013-09-22 17:42:00,
2013-09-22 12:47:00,71.7,49.2,29.24,SSW,205,0.0,1.0,45,0.00,,---,0.00,VWS V12.08,2013-09-22 17:47:00,
2013-09-22 12:52:00,71.9,49.4,29.24,South,187,0.0,1.0,45,0.00,,---,0.00,VWS V12.08,2013-09-22 17:52:00,
2013-09-22 12:57:00,71.9,49.4,29.23,SSE,163,0.0,1.0,45,0.00,,---,0.00,VWS V12.08,2013-09-22 17:57:00,
2013-09-22 13:02:00,72.3,49.8,29.23,WSW,238,0.0,0.0,45,0.00,,---,0.00,VWS V12.08,2013-09-22 18:02:00,
2013-09-22 13:07:00,72.4,49.9,29.23,WSW,242,0.0,1.0,45,0.00,,---,0.00,VWS V12.08,2013-09-22 18:07:00,
2013-09-22 13:13:00,72.9,50.3,29.23,SSE,166,0.0,1.0,45,0.00,,---,0.00,VWS V12.08,2013-09-22 18:13:00,
2013-09-22 13:18:00,72.7,50.2,29.22,SSE,152,0.0,1.0,45,0.00,,---,0.00,VWS V12.08,2013-09-22 18:18:00,
2013-09-22 13:24:00,72.6,50.1,29.23,South,171,0.0,1.0,45,0.00,,---,0.00,VWS V12.08,2013-09-22 18:24:00,
2013-09-22 13:29:00,72.8,50.2,29.22,ESE,105,0.0,1.0,45,0.00,,---,0.00,VWS V12.08,2013-09-22 18:29:00,
2013-09-22 13:34:00,73.2,50.0,29.22,SSE,168,0.0,1.0,44,0.00,,---,0.00,VWS V12.08,2013-09-22 18:34:00,
2013-09-22 13:39:00,72.6,49.5,29.21,SSE,148,0.0,1.0,44,0.00,,---,0.00,VWS V12.08,2013-09-22 18:39:00,
2013-09-22 13:44:00,72.8,49.6,29.21,ESE,119,0.0,1.0,44,0.00,,---,0.00,VWS V12.08,2013-09-22 18:44:00,
2013-09-22 13:49:00,73.1,50.5,29.21,SSE,156,0.0,1.0,45,0.00,,---,0.00,VWS V12.08,2013-09-22 18:49:00,
2013-09-22 13:54:00,73.4,50.2,29.21,SW,230,0.0,1.0,44,0.00,,---,0.00,VWS V12.08,2013-09-22 18:54:00,
2013-09-22 13:59:00,73.2,50.6,29.21,SSE,168,0.0,1.0,45,0.00,,---,0.00,VWS V12.08,2013-09-22 18:59:00,
2013-09-22 14:04:00,73.4,50.2,29.21,SSE,147,0.0,0.0,44,0.00,,---,0.00,VWS V12.08,2013-09-22 19:04:00,
2013-09-22 14:09:00,73.3,50.1,29.21,SE,146,0.0,0.0,44,0.00,,---,0.00,VWS V12.08,2013-09-22 19:09:00,
2013-09-22 14:14:00,73.2,50.0,29.20,WSW,240,0.0,0.0,44,0.00,,---,0.00,VWS V12.08,2013-09-22 19:14:00,
2013-09-22 14:19:00,73.3,50.1,29.20,ESE,103,0.0,0.0,44,0.00,,---,0.00,VWS V12.08,2013-09-22 19:19:00,
2013-09-22 14:24:00,73.5,50.3,29.20,SSW,199,0.0,0.0,44,0.00,,---,0.00,VWS V12.08,2013-09-22 19:24:00,
2013-09-22 14:30:00,73.9,50.0,29.20,SE,133,0.0,0.0,43,0.00,,---,0.00,VWS V12.08,2013-09-22 19:30:00,
2013-09-22 14:35:00,73.7,49.8,29.19,SW,234,0.0,1.0,43,0.00,,---,0.00,VWS V12.08,2013-09-22 19:35:00,
2013-09-22 14:40:00,74.0,50.7,29.20,West,264,0.0,1.0,44,0.00,,---,0.00,VWS V12.08,2013-09-22 19:40:00,
2013-09-22 14:45:00,74.5,50.6,29.19,SW,222,0.0,1.0,43,0.00,,---,0.00,VWS V12.08,2013-09-22 19:45:00,
2013-09-22 14:50:00,74.3,51.0,29.19,SE,139,0.0,1.0,44,0.00,,---,0.00,VWS V12.08,2013-09-22 19:50:00,
2013-09-22 14:55:00,74.3,50.4,29.19,SSE,154,0.0,1.0,43,0.00,,---,0.00,VWS V12.08,2013-09-22 19:55:00,
2013-09-22 15:00:00,74.6,50.7,29.19,South,181,0.0,0.0,43,0.00,,---,0.00,VWS V12.08,2013-09-22 20:00:00,
2013-09-22 15:05:00,74.9,50.9,29.19,WSW,250,0.0,0.0,43,0.00,,---,0.00,VWS V12.08,2013-09-22 20:05:00,
2013-09-22 15:11:00,74.8,51.5,29.19,ESE,108,0.0,1.0,44,0.00,,---,0.00,VWS V12.08,2013-09-22 20:11:00,
2013-09-22 15:16:00,74.6,50.7,29.19,SSW,206,0.0,1.0,43,0.00,,---,0.00,VWS V12.08,2013-09-22 20:16:00,
2013-09-22 15:21:00,74.6,50.7,29.19,SSE,159,0.0,1.0,43,0.00,,---,0.00,VWS V12.08,2013-09-22 20:21:00,
2013-09-22 15:26:00,74.7,50.7,29.18,SW,218,0.0,1.0,43,0.00,,---,0.00,VWS V12.08,2013-09-22 20:26:00,
2013-09-22 15:31:00,74.8,50.8,29.18,ESE,119,0.0,0.0,43,0.00,,---,0.00,VWS V12.08,2013-09-22 20:31:00,
2013-09-22 15:36:00,75.1,51.1,29.18,ESE,123,0.0,0.0,43,0.00,,---,0.00,VWS V12.08,2013-09-22 20:36:00,
2013-09-22 15:41:00,74.7,50.7,29.18,South,182,0.0,0.0,43,0.00,,---,0.00,VWS V12.08,2013-09-22 20:41:00,
2013-09-22 15:46:00,74.7,50.7,29.18,SE,131,0.0,0.0,43,0.00,,---,0.00,VWS V12.08,2013-09-22 20:46:00,
2013-09-22 15:52:00,75.1,51.1,29.17,SSE,148,0.0,0.0,43,0.00,,---,0.00,VWS V12.08,2013-09-22 20:52:00,
2013-09-22 15:57:00,75.1,50.5,29.17,SE,143,0.0,0.0,42,0.00,,---,0.00,VWS V12.08,2013-09-22 20:57:00,
2013-09-22 16:02:00,75.1,50.5,29.17,West,271,0.0,0.0,42,0.00,,---,0.00,VWS V12.08,2013-09-22 21:02:00,
2013-09-22 16:07:00,75.1,51.1,29.17,SSW,193,0.0,2.0,43,0.00,,---,0.00,VWS V12.08,2013-09-22 21:07:00,
2013-09-22 16:12:00,75.1,50.5,29.17,West,264,0.0,2.0,42,0.00,,---,0.00,VWS V12.08,2013-09-22 21:12:00,
2013-09-22 16:17:00,75.1,51.1,29.17,SSW,213,0.0,2.0,43,0.00,,---,0.00,VWS V12.08,2013-09-22 21:17:00,
2013-09-22 16:22:00,75.0,50.4,29.17,South,189,0.0,2.0,42,0.00,,---,0.00,VWS V12.08,2013-09-22 21:22:00,
2013-09-22 16:28:00,74.7,50.7,29.17,SSE,160,0.0,2.0,43,0.00,,---,0.00,VWS V12.08,2013-09-22 21:28:00,
2013-09-22 16:33:00,74.5,50.6,29.16,SSE,163,0.0,0.0,43,0.00,,---,0.00,VWS V12.08,2013-09-22 21:33:00,
2013-09-22 16:38:00,74.7,50.7,29.17,WNW,297,0.0,0.0,43,0.00,,---,0.00,VWS V12.08,2013-09-22 21:38:00,
2013-09-22 16:43:00,75.1,51.1,29.17,WSW,237,0.0,1.0,43,0.00,,---,0.00,VWS V12.08,2013-09-22 21:43:00,
2013-09-22 16:48:00,75.0,51.0,29.17,WSW,245,0.0,1.0,43,0.00,,---,0.00,VWS V12.08,2013-09-22 21:48:00,
2013-09-22 16:53:00,74.7,50.7,29.16,SE,140,0.0,1.0,43,0.00,,---,0.00,VWS V12.08,2013-09-22 21:53:00,
2013-09-22 16:59:00,74.7,51.4,29.16,SSE,152,0.0,1.0,44,0.00,,---,0.00,VWS V12.08,2013-09-22 21:59:00,
2013-09-22 17:04:00,74.7,51.4,29.16,West,270,0.0,0.0,44,0.00,,---,0.00,VWS V12.08,2013-09-22 22:04:00,
2013-09-22 17:09:00,74.7,50.7,29.16,South,174,0.0,0.0,43,0.00,,---,0.00,VWS V12.08,2013-09-22 22:09:00,
2013-09-22 17:14:00,74.7,51.4,29.17,SE,131,0.0,0.0,44,0.00,,---,0.00,VWS V12.08,2013-09-22 22:14:00,
2013-09-22 17:19:00,74.8,51.5,29.16,WSW,240,0.0,1.0,44,0.00,,---,0.00,VWS V12.08,2013-09-22 22:19:00,
2013-09-22 17:24:00,74.7,51.4,29.16,ESE,115,0.0,1.0,44,0.00,,---,0.00,VWS V12.08,2013-09-22 22:24:00,
2013-09-22 17:30:00,74.7,52.0,29.16,SSW,198,0.0,1.0,45,0.00,,---,0.00,VWS V12.08,2013-09-22 22:30:00,
2013-09-22 17:35:00,74.6,51.9,29.16,SSE,167,0.0,2.0,45,0.00,,---,0.00,VWS V12.08,2013-09-22 22:35:00,
2013-09-22 17:40:00,74.6,51.9,29.17,WSW,241,0.0,2.0,45,0.00,,---,0.00,VWS V12.08,2013-09-22 22:40:00,
2013-09-22 17:45:00,74.4,51.7,29.17,SSE,151,0.0,2.0,45,0.00,,---,0.00,VWS V12.08,2013-09-22 22:45:00,
2013-09-22 17:50:00,74.3,51.6,29.17,South,181,0.0,2.0,45,0.00,,---,0.00,VWS V12.08,2013-09-22 22:50:00,
2013-09-22 17:55:00,74.1,51.4,29.17,SE,128,0.0,2.0,45,0.00,,---,0.00,VWS V12.08,2013-09-22 22:55:00,
2013-09-22 18:00:00,74.0,51.9,29.17,SSE,157,0.0,0.0,46,0.00,,---,0.00,VWS V12.08,2013-09-22 23:00:00,
2013-09-22 18:05:00,74.0,51.9,29.17,South,191,0.0,1.0,46,0.00,,---,0.00,VWS V12.08,2013-09-22 23:05:00,
2013-09-22 18:10:00,73.9,51.2,29.17,SE,124,0.0,1.0,45,0.00,,---,0.00,VWS V12.08,2013-09-22 23:10:00,
2013-09-22 18:15:00,73.7,51.7,29.17,SE,136,0.0,1.0,46,0.00,,---,0.00,VWS V12.08,2013-09-22 23:15:00,
2013-09-22 18:20:00,73.6,51.6,29.17,WSW,241,0.0,1.0,46,0.00,,---,0.00,VWS V12.08,2013-09-22 23:20:00,
2013-09-22 18:25:00,73.3,51.3,29.17,SSE,153,0.0,1.0,46,0.00,,---,0.00,VWS V12.08,2013-09-22 23:25:00,
2013-09-22 18:30:00,73.2,51.8,29.17,NW,323,0.0,0.0,47,0.00,,---,0.00,VWS V12.08,2013-09-22 23:30:00,
2013-09-22 18:35:00,73.0,51.6,29.17,ESE,118,0.0,0.0,47,0.00,,---,0.00,VWS V12.08,2013-09-22 23:35:00,
2013-09-22 18:40:00,72.7,51.3,29.17,South,171,0.0,0.0,47,0.00,,---,0.00,VWS V12.08,2013-09-22 23:40:00,
2013-09-22 18:46:00,72.4,51.6,29.17,NNW,334,0.0,0.0,48,0.00,,---,0.00,VWS V12.08,2013-09-22 23:46:00,
2013-09-22 18:51:00,72.1,51.9,29.17,SSW,198,0.0,0.0,49,0.00,,---,0.00,VWS V12.08,2013-09-22 23:51:00,
2013-09-22 18:56:00,71.8,51.6,29.17,ESE,120,0.0,0.0,49,0.00,,---,0.00,VWS V12.08,2013-09-22 23:56:00,
2013-09-22 19:01:00,71.4,51.8,29.17,North,353,0.0,0.0,50,0.00,,---,0.00,VWS V12.08,2013-09-23 00:01:00,
2013-09-22 19:06:00,70.9,51.3,29.17,SW,224,0.0,0.0,50,0.00,,---,0.00,VWS V12.08,2013-09-23 00:06:00,
2013-09-22 19:11:00,70.5,51.5,29.17,WNW,293,0.0,0.0,51,0.00,,---,0.00,VWS V12.08,2013-09-23 00:11:00,
2013-09-22 19:16:00,70.2,51.8,29.17,WSW,244,0.0,0.0,52,0.00,,---,0.00,VWS V12.08,2013-09-23 00:16:00,
2013-09-22 19:22:00,69.8,51.4,29.17,SSE,148,0.0,0.0,52,0.00,,---,0.00,VWS V12.08,2013-09-23 00:22:00,
2013-09-22 19:27:00,69.4,51.5,29.17,SSE,150,0.0,0.0,53,0.00,,---,0.00,VWS V12.08,2013-09-23 00:27:00,
2013-09-22 19:33:00,69.1,51.3,29.17,SE,146,0.0,0.0,53,0.00,,---,0.00,VWS V12.08,2013-09-23 00:33:00,
2013-09-22 19:38:00,68.7,51.4,29.17,SE,128,0.0,0.0,54,0.00,,---,0.00,VWS V12.08,2013-09-23 00:38:00,
2013-09-22 19:43:00,68.5,51.2,29.17,SE,136,0.0,0.0,54,0.00,,---,0.00,VWS V12.08,2013-09-23 00:43:00,
2013-09-22 19:48:00,68.3,51.0,29.17,SW,229,0.0,0.0,54,0.00,,---,0.00,VWS V12.08,2013-09-23 00:48:00,
2013-09-22 19:53:00,68.1,50.8,29.17,North,356,0.0,0.0,54,0.00,,---,0.00,VWS V12.08,2013-09-23 00:53:00,
2013-09-22 19:58:00,67.9,51.2,29.17,SE,138,0.0,0.0,55,0.00,,---,0.00,VWS V12.08,2013-09-23 00:58:00,
2013-09-22 20:03:00,67.6,50.9,29.17,ESE,118,0.0,0.0,55,0.00,,---,0.00,VWS V12.08,2013-09-23 01:03:00,
2013-09-22 20:09:00,67.1,50.9,29.17,SSE,154,0.0,0.0,56,0.00,,---,0.00,VWS V12.08,2013-09-23 01:09:00,
2013-09-22 20:14:00,66.7,51.0,29.18,SE,136,0.0,0.0,57,0.00,,---,0.00,VWS V12.08,2013-09-23 01:14:00,
2013-09-22 20:19:00,66.4,51.2,29.18,South,178,0.0,0.0,58,0.00,,---,0.00,VWS V12.08,2013-09-23 01:19:00,
2013-09-22 20:25:00,66.2,51.0,29.18,SE,145,0.0,0.0,58,0.00,,---,0.00,VWS V12.08,2013-09-23 01:25:00,
2013-09-22 20:30:00,66.1,50.9,29.18,SSE,167,0.0,0.0,58,0.00,,---,0.00,VWS V12.08,2013-09-23 01:30:00,
2013-09-22 20:35:00,65.9,50.7,29.18,South,176,0.0,0.0,58,0.00,,---,0.00,VWS V12.08,2013-09-23 01:35:00,
2013-09-22 20:40:00,65.8,50.6,29.18,SSE,151,0.0,0.0,58,0.00,,---,0.00,VWS V12.08,2013-09-23 01:40:00,
2013-09-22 20:45:00,65.5,50.3,29.18,SE,136,0.0,0.0,58,0.00,,---,0.00,VWS V12.08,2013-09-23 01:45:00,
2013-09-22 20:50:00,65.4,50.2,29.18,SW,215,0.0,0.0,58,0.00,,---,0.00,VWS V12.08,2013-09-23 01:50:00,
2013-09-22 20:55:00,65.2,50.1,29.18,ENE,59,0.0,0.0,58,0.00,,---,0.00,VWS V12.08,2013-09-23 01:55:00,
2013-09-22 21:00:00,64.9,50.2,29.19,ESE,105,0.0,0.0,59,0.00,,---,0.00,VWS V12.08,2013-09-23 02:00:00,
2013-09-22 21:06:00,64.4,50.2,29.19,South,179,0.0,0.0,60,0.00,,---,0.00,VWS V12.08,2013-09-23 02:06:00,
2013-09-22 21:11:00,64.1,50.0,29.19,SSW,192,0.0,0.0,60,0.00,,---,0.00,VWS V12.08,2013-09-23 02:11:00,
2013-09-22 21:16:00,63.8,50.1,29.19,SW,223,0.0,0.0,61,0.00,,---,0.00,VWS V12.08,2013-09-23 02:16:00,
2013-09-22 21:21:00,63.6,49.9,29.20,South,180,0.0,0.0,61,0.00,,---,0.00,VWS V12.08,2013-09-23 02:21:00,
2013-09-22 21:26:00,63.5,49.8,29.19,SSE,147,0.0,0.0,61,0.00,,---,0.00,VWS V12.08,2013-09-23 02:26:00,
2013-09-22 21:31:00,63.4,49.3,29.19,SSE,147,0.0,0.0,60,0.00,,---,0.00,VWS V12.08,2013-09-23 02:31:00,
2013-09-22 21:36:00,63.4,49.3,29.19,South,170,0.0,0.0,60,0.00,,---,0.00,VWS V12.08,2013-09-23 02:36:00,
2013-09-22 21:42:00,63.2,49.1,29.20,South,187,0.0,0.0,60,0.00,,---,0.00,VWS V12.08,2013-09-23 02:42:00,
2013-09-22 21:47:00,63.1,49.0,29.19,SSE,158,0.0,0.0,60,0.00,,---,0.00,VWS V12.08,2013-09-23 02:47:00,
2013-09-22 21:52:00,63.0,48.9,29.20,South,177,0.0,0.0,60,0.00,,---,0.00,VWS V12.08,2013-09-23 02:52:00,
2013-09-22 21:57:00,62.9,48.8,29.20,South,179,0.0,0.0,60,0.00,,---,0.00,VWS V12.08,2013-09-23 02:57:00,
2013-09-22 22:02:00,62.6,48.5,29.20,SSW,200,0.0,0.0,60,0.00,,---,0.00,VWS V12.08,2013-09-23 03:02:00,
2013-09-22 22:07:00,62.0,48.4,29.21,South,170,0.0,0.0,61,0.00,,---,0.00,VWS V12.08,2013-09-23 03:07:00,
2013-09-22 22:12:00,61.7,49.0,29.21,SE,126,0.0,0.0,63,0.00,,---,0.00,VWS V12.08,2013-09-23 03:12:00,
2013-09-22 22:17:00,61.2,48.5,29.21,SW,224,0.0,0.0,63,0.00,,---,0.00,VWS V12.08,2013-09-23 03:17:00,
2013-09-22 22:22:00,60.9,48.7,29.21,SE,126,0.0,0.0,64,0.00,,---,0.00,VWS V12.08,2013-09-23 03:22:00,
2013-09-22 22:28:00,60.5,48.3,29.20,SSW,192,0.0,0.0,64,0.00,,---,0.00,VWS V12.08,2013-09-23 03:28:00,
2013-09-22 22:35:00,60.1,48.3,29.21,ESE,117,0.0,0.0,65,0.00,,---,0.00,VWS V12.08,2013-09-23 03:35:00,
2013-09-22 22:40:00,59.8,48.4,29.21,ESE,122,0.0,0.0,66,0.00,,---,0.00,VWS V12.08,2013-09-23 03:40:00,
2013-09-22 22:48:00,59.4,48.0,29.21,East,97,0.0,0.0,66,0.00,,---,0.00,VWS V12.08,2013-09-23 03:48:00,
2013-09-22 22:53:00,59.2,47.9,29.21,SSW,212,0.0,0.0,66,0.00,,---,0.00,VWS V12.08,2013-09-23 03:53:00,
2013-09-22 23:00:00,59.1,48.2,29.21,South,170,0.0,0.0,67,0.00,,---,0.00,VWS V12.08,2013-09-23 04:00:00,
2013-09-22 23:01:00,59.1,48.2,29.21,SW,236,0.0,0.0,67,0.00,,---,0.00,VWS V12.08,2013-09-23 04:01:00,
2013-09-22 23:02:00,59.1,48.2,29.21,SSE,154,0.0,0.0,67,0.00,,---,0.00,VWS V12.08,2013-09-23 04:02:00,
2013-09-22 23:09:00,59.0,48.5,29.21,SSE,151,0.0,0.0,68,0.00,,---,0.00,VWS V12.08,2013-09-23 04:09:00,
2013-09-22 23:12:00,59.0,48.5,29.21,SSE,152,0.0,0.0,68,0.00,,---,0.00,VWS V12.08,2013-09-23 04:12:00,
2013-09-22 23:18:00,58.9,48.4,29.21,SSE,157,0.0,0.0,68,0.00,,---,0.00,VWS V12.08,2013-09-23 04:18:00,
2013-09-22 23:20:00,58.9,48.4,29.21,SSW,193,0.0,0.0,68,0.00,,---,0.00,VWS V12.08,2013-09-23 04:20:00,
2013-09-22 23:25:00,58.9,48.4,29.21,SSE,167,0.0,0.0,68,0.00,,---,0.00,VWS V12.08,2013-09-23 04:25:00,
2013-09-22 23:30:00,58.8,48.3,29.21,South,178,0.0,0.0,68,0.00,,---,0.00,VWS V12.08,2013-09-23 04:30:00,
2013-09-22 23:33:00,58.8,48.7,29.21,South,174,0.0,0.0,69,0.00,,---,0.00,VWS V12.08,2013-09-23 04:33:00,
2013-09-22 23:39:00,58.7,48.6,29.21,SSE,166,0.0,0.0,69,0.00,,---,0.00,VWS V12.08,2013-09-23 04:39:00,
2013-09-22 23:44:00,58.5,48.4,29.21,ESE,123,0.0,0.0,69,0.00,,---,0.00,VWS V12.08,2013-09-23 04:44:00,
2013-09-22 23:49:00,58.3,48.6,29.21,SSE,148,0.0,0.0,70,0.00,,---,0.00,VWS V12.08,2013-09-23 04:49:00,
2013-09-22 23:54:00,58.1,48.4,29.21,SE,130,0.0,0.0,70,0.00,,---,0.00,VWS V12.08,2013-09-23 04:54:00,
2013-09-22 23:59:00,57.9,48.6,29.21,ESE,107,0.0,0.0,71,0.00,,---,0.00,VWS V12.08,2013-09-23 04:59:00,